DW2736 Weather Reports


Display with metric or nautical units.
time (UTC)temp
F
wind
direction
speed
MPH
gust
MPH
rain 1hr
in
rain 24hr
in
rain mn
in
humidity
%
barometer
mb
20170529190519 79 292 0.0 2.0 0.00 0.00 0.00 49 1013.8
20170529190026 79 292 0.0 4.0 0.00 0.00 0.00 48 1013.8
20170529185515 79 292 0.0 5.0 0.00 0.00 0.00 50 1013.8
20170529185024 80 292 2.0 5.0 0.00 0.00 0.00 49 1013.8
20170529184534 80 292 0.0 3.0 0.00 0.00 0.00 51 1013.9
20170529184022 80 292 0.0 3.0 0.00 0.00 0.00 50 1013.9
20170529183533 79 292 0.0 1.0 0.00 0.00 0.00 52 1013.9
20170529183022 79 292 0.0 3.0 0.00 0.00 0.00 52 1013.9
20170529182532 79 292 0.0 3.0 0.00 0.00 0.00 52 1014.0
20170529182022 79 292 0.0 1.0 0.00 0.00 0.00 52 1014.0
20170529181534 78 292 0.0 3.0 0.00 0.00 0.00 52 1014.0
20170529181022 78 292 0.0 3.0 0.00 0.00 0.00 53 1014.0
20170529180530 78 292 0.0 2.0 0.00 0.00 0.00 54 1014.0
20170529180019 77 292 0.0 3.0 0.00 0.00 0.00 55 1014.1
20170529175526 77 292 0.0 4.0 0.00 0.00 0.00 55 1014.1
20170529175034 77 292 0.0 3.0 0.00 0.00 0.00 55 1014.1
20170529174524 77 292 0.0 3.0 0.00 0.00 0.00 56 1014.1
20170529174032 77 292 0.0 2.0 0.00 0.00 0.00 57 1014.0
20170529173524 77 292 0.0 1.0 0.00 0.00 0.00 57 1014.0
20170529173034 77 292 0.0 3.0 0.00 0.00 0.00 56 1014.0
20170529172523 76 292 0.0 3.0 0.00 0.00 0.00 58 1014.0
20170529172031 76 292 0.0 3.0 0.00 0.00 0.00 56 1014.0
20170529171607 76 292 1.0 3.0 0.00 0.00 0.00 55 1014.0
20170529171453 76 292 0.0 3.0 0.00 0.00 0.00 56 1014.0
20170529171002 76 292 0.0 4.0 0.00 0.00 0.00 56 1014.0
20170529170452 76 292 1.0 5.0 0.00 0.00 0.00 56 1014.0
20170529170000 76 292 2.0 5.0 0.00 0.00 0.00 56 1014.0
20170529165453 76 292 0.0 3.0 0.00 0.00 0.00 56 1014.0
20170529165002 75 292 0.0 2.0 0.00 0.00 0.00 52 1013.9
20170529164451 75 292 0.0 2.0 0.00 0.00 0.00 52 1013.9
20170529164000 75 292 0.0 2.0 0.00 0.00 0.00 53 1013.9
20170529163449 74 292 0.0 2.0 0.00 0.00 0.00 54 1013.9
20170529162958 74 292 0.0 1.0 0.00 0.00 0.00 56 1013.9
20170529162447 73 292 0.0 1.0 0.00 0.00 0.00 56 1013.9
20170529161954 73 292 0.0 2.0 0.00 0.00 0.00 58 1013.9
20170529161444 73 292 0.0 1.0 0.00 0.00 0.00 59 1013.9
20170529161000 72 292 0.0 1.0 0.00 0.00 0.00 60 1013.9
20170529160450 72 292 0.0 0.0 0.00 0.00 0.00 60 1013.8
20170529155959 71 292 0.0 0.0 0.00 0.00 0.00 60 1013.9
20170529155449 70 292 0.0 0.0 0.00 0.00 0.00 62 1013.9
20170529154958 69 292 0.0 0.0 0.00 0.00 0.00 64 1013.9
20170529154448 69 292 0.0 0.0 0.00 0.00 0.00 66 1013.8
20170529153956 68 292 0.0 2.0 0.00 0.00 0.00 64 1013.9
20170529153505 68 292 0.0 2.0 0.00 0.00 0.00 67 1013.8
20170529152956 67 292 0.0 0.0 0.00 0.00 0.00 67 1013.9
20170529152454 66 292 0.0 0.0 0.00 0.00 0.00 69 1013.9
20170529152004 66 292 0.0 0.0 0.00 0.00 0.00 70 1014.0
20170529151517 66 292 0.0 0.0 0.00 0.00 0.00 71 1013.9
20170529151007 66 292 0.0 0.0 0.00 0.00 0.00 72 1013.9
20170529150520 65 292 0.0 0.0 0.00 0.00 0.00 73 1014.0
20170529150029 65 292 0.0 1.0 0.00 0.00 0.00 74 1014.1
20170529145518 64 292 0.0 1.0 0.00 0.00 0.00 76 1014.1
20170529145028 63 292 0.0 0.0 0.00 0.00 0.00 78 1014.1
20170529144517 62 292 0.0 3.0 0.00 0.00 0.00 80 1014.1
20170529144028 61 292 0.0 3.0 0.00 0.00 0.00 83 1014.1
20170529143516 60 292 0.0 1.0 0.00 0.00 0.00 84 1014.2
20170529143026 59 292 0.0 1.0 0.00 0.00 0.00 85 1014.3
20170529142516 59 292 0.0 1.0 0.00 0.00 0.00 85 1014.3
20170529142023 59 292 0.0 0.0 0.00 0.00 0.00 85 1014.4
20170529141534 59 292 0.0 0.0 0.00 0.00 0.00 85 1014.4
20170529141023 58 292 0.0 0.0 0.00 0.00 0.00 86 1014.5
20170529140532 58 292 0.0 0.0 0.00 0.00 0.00 86 1014.5
20170529140019 58 292 0.0 0.0 0.00 0.00 0.00 86 1014.5
20170529135533 58 292 0.0 0.0 0.00 0.00 0.00 86 1014.5
20170529135022 58 292 0.0 0.0 0.00 0.00 0.00 86 1014.4
20170529134531 58 292 0.0 0.0 0.00 0.00 0.00 85 1014.4
20170529134018 58 292 0.0 0.0 0.00 0.00 0.00 87 1014.5
20170529133527 58 292 0.0 0.0 0.00 0.00 0.00 88 1014.5
20170529133016 58 292 0.0 1.0 0.00 0.00 0.00 88 1014.4
20170529132525 58 292 0.0 1.0 0.00 0.00 0.00 87 1014.3
20170529132031 58 292 0.0 0.0 0.00 0.00 0.00 87 1014.2
20170529131522 57 292 0.0 0.0 0.00 0.00 0.00 86 1014.1
20170529131016 57 292 0.0 0.0 0.00 0.00 0.00 86 1014.1
20170529130524 57 292 0.0 0.0 0.00 0.00 0.00 86 1014.1
20170529130033 57 292 0.0 0.0 0.00 0.00 0.00 85 1014.0
20170529125522 57 292 0.0 0.0 0.00 0.00 0.00 84 1014.0
20170529125033 57 292 0.0 0.0 0.00 0.00 0.00 85 1013.9
20170529124523 57 292 0.0 0.0 0.00 0.00 0.00 86 1013.9
20170529124031 57 292 0.0 0.0 0.00 0.00 0.00 86 1013.9
20170529123517 57 292 0.0 0.0 0.00 0.00 0.00 84 1013.9
20170529123027 57 292 0.0 0.0 0.00 0.00 0.00 84 1013.8
20170529122518 57 292 0.0 0.0 0.00 0.00 0.00 85 1013.8
20170529122026 57 292 0.0 0.0 0.00 0.00 0.00 86 1013.7
20170529121517 57 292 0.0 0.0 0.00 0.00 0.00 86 1013.7
20170529121023 57 292 0.0 0.0 0.00 0.00 0.00 86 1013.8
20170529120533 57 292 0.0 0.0 0.00 0.00 0.00 85 1013.8
20170529120022 58 292 0.0 0.0 0.00 0.00 0.00 85 1013.8
20170529115531 58 292 0.0 0.0 0.00 0.00 0.00 85 1013.8
20170529115020 58 292 0.0 0.0 0.00 0.00 0.00 85 1013.9
20170529114531 57 292 0.0 0.0 0.00 0.00 0.00 85 1013.8
20170529114022 57 292 0.0 0.0 0.00 0.00 0.00 87 1013.8
20170529113533 57 292 0.0 0.0 0.00 0.00 0.00 88 1013.8
20170529113023 57 292 0.0 0.0 0.00 0.00 0.00 88 1013.8
20170529112533 57 292 0.0 0.0 0.00 0.00 0.00 89 1013.8
20170529112021 57 292 0.0 0.0 0.00 0.00 0.00 89 1013.8
20170529111531 57 292 0.0 0.0 0.00 0.00 0.00 88 1013.9
20170529111019 58 292 0.0 0.0 0.00 0.00 0.00 89 1013.9
20170529110528 58 292 0.0 0.0 0.00 0.00 0.00 89 1014.0
20170529110021 58 292 0.0 0.0 0.00 0.00 0.00 89 1014.1
20170529105530 58 292 0.0 0.0 0.00 0.00 0.00 89 1014.1
20170529105019 58 292 0.0 0.0 0.00 0.00 0.00 89 1014.2
20170529104530 58 292 0.0 0.0 0.00 0.00 0.00 89 1014.2
20170529104017 58 292 0.0 0.0 0.00 0.00 0.00 90 1014.2
20170529103528 58 292 0.0 0.0 0.00 0.00 0.00 90 1014.2
20170529103017 58 292 0.0 0.0 0.00 0.00 0.00 89 1014.2
20170529102525 58 292 0.0 0.0 0.00 0.00 0.00 89 1014.2
20170529102033 58 292 0.0 0.0 0.00 0.00 0.00 88 1014.2
20170529101526 58 292 0.0 0.0 0.00 0.00 0.00 88 1014.1
20170529101015 58 292 0.0 0.0 0.00 0.00 0.00 88 1014.2
20170529100525 59 292 0.0 0.0 0.00 0.00 0.00 88 1014.2
20170529100034 59 292 0.0 0.0 0.00 0.00 0.00 88 1014.2
20170529095523 59 292 0.0 0.0 0.00 0.00 0.00 88 1014.3
20170529095031 59 292 0.0 0.0 0.00 0.00 0.00 87 1014.3
20170529094521 59 292 0.0 0.0 0.00 0.00 0.00 87 1014.4
20170529094029 59 292 0.0 0.0 0.00 0.00 0.00 87 1014.5
20170529093517 59 292 0.0 0.0 0.00 0.00 0.00 86 1014.5
20170529093033 59 292 0.0 0.0 0.00 0.00 0.00 86 1014.5
20170529092520 60 292 0.0 0.0 0.00 0.00 0.00 86 1014.5
20170529092028 60 292 0.0 0.0 0.00 0.00 0.00 86 1014.4
20170529091519 60 292 0.0 0.0 0.00 0.00 0.00 85 1014.5
20170529091027 60 292 0.0 0.0 0.00 0.00 0.00 85 1014.6
20170529090517 60 292 0.0 0.0 0.00 0.00 0.00 85 1014.6
20170529090024 60 292 0.0 0.0 0.00 0.00 0.00 84 1014.6
20170529085534 60 292 0.0 0.0 0.00 0.00 0.00 84 1014.6
20170529085023 60 292 0.0 0.0 0.00 0.00 0.00 83 1014.6
20170529084517 60 292 0.0 0.0 0.00 0.00 0.00 83 1014.6
20170529084024 61 292 0.0 0.0 0.00 0.00 0.00 83 1014.6
20170529083532 61 292 0.0 0.0 0.00 0.00 0.00 83 1014.6
20170529083019 61 292 0.0 0.0 0.00 0.00 0.00 83 1014.7
20170529082528 61 292 0.0 0.0 0.00 0.00 0.00 82 1014.7
20170529082035 61 292 0.0 0.0 0.00 0.00 0.00 82 1014.7
20170529081525 61 292 0.0 0.0 0.00 0.00 0.00 82 1014.7
20170529081033 61 292 0.0 0.0 0.00 0.00 0.00 82 1014.7
20170529080523 61 292 0.0 0.0 0.00 0.00 0.00 81 1014.7
20170529080035 61 292 0.0 0.0 0.00 0.00 0.00 81 1014.7
20170529075524 61 292 0.0 2.0 0.00 0.00 0.00 81 1014.6
20170529075033 61 292 0.0 2.0 0.00 0.00 0.00 82 1014.7
20170529074523 61 292 0.0 0.0 0.00 0.00 0.00 82 1014.8
20170529074030 61 292 0.0 0.0 0.00 0.00 0.00 82 1014.8
20170529073520 62 292 0.0 0.0 0.00 0.00 0.00 81 1014.7
20170529073031 62 292 0.0 0.0 0.00 0.00 0.00 81 1014.7
20170529072521 62 292 0.0 0.0 0.00 0.00 0.00 81 1014.7
20170529072028 62 292 0.0 0.0 0.00 0.00 0.00 80 1014.8
20170529071522 62 292 0.0 0.0 0.00 0.00 0.00 80 1014.8
20170529071031 63 292 0.0 0.0 0.00 0.00 0.00 79 1014.8
20170529070520 63 292 0.0 0.0 0.00 0.00 0.00 79 1014.9
20170529070026 63 292 0.0 0.0 0.00 0.00 0.00 78 1014.9
20170529065535 63 292 0.0 0.0 0.00 0.00 0.00 78 1015.0
20170529065023 64 292 0.0 0.0 0.00 0.00 0.00 77 1015.0
20170529064534 64 292 0.0 0.0 0.00 0.00 0.00 77 1015.0
20170529064021 64 292 0.0 0.0 0.00 0.00 0.00 77 1015.1
20170529063530 64 292 0.0 0.0 0.00 0.00 0.00 76 1015.2
20170529063023 64 292 0.0 0.0 0.00 0.00 0.00 76 1015.2
20170529062531 64 292 0.0 0.0 0.00 0.00 0.00 76 1015.2
20170529062017 64 292 0.0 0.0 0.00 0.00 0.00 76 1015.2
20170529061528 64 292 0.0 0.0 0.00 0.00 0.00 76 1015.3
20170529061017 64 292 0.0 0.0 0.00 0.00 0.00 76 1015.3
20170529060526 65 292 0.0 0.0 0.00 0.00 0.00 76 1015.2
20170529060033 65 292 0.0 0.0 0.00 0.00 0.00 76 1015.2
20170529055523 65 292 0.0 0.0 0.00 0.00 0.00 75 1015.3
20170529055016 65 292 0.0 0.0 0.00 0.00 0.00 75 1015.3
20170529054524 65 292 0.0 0.0 0.00 0.00 0.00 75 1015.2
20170529054032 65 292 0.0 0.0 0.00 0.00 0.00 75 1015.3
20170529053522 66 292 0.0 0.0 0.00 0.00 0.00 74 1015.3
20170529053031 66 292 0.0 0.0 0.00 0.00 0.00 74 1015.4
20170529052519 66 292 0.0 0.0 0.00 0.00 0.00 73 1015.4
20170529052027 66 292 0.0 0.0 0.00 0.00 0.00 72 1015.4
20170529051519 67 292 0.0 0.0 0.00 0.00 0.00 72 1015.4
20170529051027 67 292 0.0 0.0 0.00 0.00 0.00 71 1015.4
20170529050520 67 292 0.0 0.0 0.00 0.00 0.00 71 1015.4
20170529050026 68 292 0.0 0.0 0.00 0.00 0.00 70 1015.5
20170529045535 68 292 0.0 0.0 0.00 0.00 0.00 69 1015.5
20170529045023 68 292 0.0 0.0 0.00 0.00 0.00 68 1015.4
20170529044534 69 292 0.0 0.0 0.00 0.00 0.00 68 1015.4
20170529044020 69 292 0.0 0.0 0.00 0.00 0.00 67 1015.4
20170529043529 69 292 0.0 0.0 0.00 0.00 0.00 66 1015.3
20170529043017 70 292 0.0 0.0 0.00 0.00 0.00 65 1015.3
20170529042526 70 292 0.0 0.0 0.00 0.00 0.00 64 1015.3
20170529042016 71 292 0.0 0.0 0.00 0.00 0.00 64 1015.3
20170529041524 71 292 0.0 0.0 0.00 0.00 0.00 63 1015.2
20170529041033 71 292 0.0 5.0 0.00 0.00 0.00 62 1015.2
20170529040523 72 292 0.0 5.0 0.00 0.00 0.00 61 1015.2
20170529040030 72 292 0.0 5.0 0.00 0.00 0.00 60 1015.2
20170529035520 73 292 0.0 0.0 0.00 0.00 0.00 60 1015.1
20170529035028 73 292 0.0 6.0 0.00 0.00 0.00 59 1015.1
20170529034518 74 292 0.0 6.0 0.00 0.00 0.00 58 1015.0
20170529034026 74 293 0.0 3.0 0.00 0.00 0.00 56 1015.0
20170529033518 75 293 0.0 4.0 0.00 0.00 0.00 55 1015.0
20170529033029 75 294 0.0 0.0 0.00 0.00 0.00 54 1014.9
20170529032518 76 294 0.0 2.0 0.00 0.00 0.00 53 1014.9
20170529032024 77 294 0.0 3.0 0.00 0.00 0.00 52 1014.9
20170529031531 77 294 0.0 3.0 0.00 0.00 0.00 51 1014.8
20170529031020 78 294 0.0 0.0 0.00 0.00 0.00 49 1014.9
20170529030529 79 294 0.0 0.0 0.00 0.00 0.00 48 1014.8
20170529030035 79 294 0.0 0.0 0.00 0.00 0.00 43 1014.8
20170529025523 80 294 0.0 0.0 0.00 0.00 0.00 43 1014.7
20170529025015 80 294 0.0 0.0 0.00 0.00 0.00 42 1014.8
20170529024526 80 294 0.0 0.0 0.00 0.00 0.00 40 1014.8
20170529024033 81 294 0.0 0.0 0.00 0.00 0.00 39 1014.7
20170529023523 81 294 0.0 0.0 0.00 0.00 0.00 39 1014.7
20170529023033 81 294 0.0 0.0 0.00 0.00 0.00 39 1014.7
20170529022521 81 294 0.0 0.0 0.00 0.00 0.00 38 1014.7
20170529022028 81 294 0.0 0.0 0.00 0.00 0.00 38 1014.7
20170529021519 81 294 0.0 0.0 0.00 0.00 0.00 40 1014.7
20170529021028 82 294 0.0 3.0 0.00 0.00 0.00 39 1014.7
20170529020521 82 294 0.0 2.0 0.00 0.00 0.00 39 1014.7
20170529020029 82 294 0.0 1.0 0.00 0.00 0.00 39 1014.7
20170529015517 82 294 0.0 0.0 0.00 0.00 0.00 39 1014.7
20170529015024 83 294 0.0 0.0 0.00 0.00 0.00 39 1014.8
20170529014533 83 294 0.0 2.0 0.00 0.00 0.00 39 1014.8
20170529014021 83 294 0.0 3.0 0.00 0.00 0.00 37 1014.9
20170529013530 83 294 1.0 3.0 0.00 0.00 0.00 37 1015.0
20170529013021 84 294 1.0 2.0 0.00 0.00 0.00 37 1015.0
20170529012529 84 294 0.0 2.0 0.00 0.00 0.00 38 1015.0
20170529012019 84 294 0.0 3.0 0.00 0.00 0.00 36 1015.0
20170529011528 85 294 0.0 3.0 0.00 0.00 0.00 35 1015.2
20170529011014 85 294 0.0 1.0 0.00 0.00 0.00 37 1015.2
20170529010524 84 294 0.0 2.0 0.00 0.00 0.00 36 1015.3
20170529010029 84 294 0.0 3.0 0.00 0.00 0.00 36 1015.3
20170529005517 84 294 1.0 5.0 0.00 0.00 0.00 35 1015.3
20170529005024 85 294 1.0 5.0 0.00 0.00 0.00 35 1015.4
20170529004533 85 294 0.0 4.0 0.00 0.00 0.00 36 1015.4
20170529004019 84 294 1.0 4.0 0.00 0.00 0.00 35 1015.3
20170529003530 84 294 1.0 4.0 0.00 0.00 0.00 34 1015.4
20170529003023 85 294 1.0 6.0 0.00 0.00 0.00 33 1015.5
20170529002530 85 294 1.0 6.0 0.00 0.00 0.00 34 1015.5
20170529002017 85 293 1.0 4.0 0.00 0.00 0.00 33 1015.6
20170529001525 86 293 1.0 4.0 0.00 0.00 0.00 32 1015.5
20170529001033 86 293 0.0 2.0 0.00 0.00 0.00 32 1015.5
20170529000522 86 293 0.0 3.0 0.00 0.00 0.00 33 1015.6
20170529000026 86 293 1.0 4.0 0.00 0.00 0.00 34 1015.6
20170528235514 86 293 0.0 3.0 0.00 0.00 0.00 33 1015.8
20170528235024 86 293 0.0 3.0 0.00 0.00 0.00 32 1015.8
20170528234517 86 293 0.0 3.0 0.00 0.00 0.00 34 1015.8
20170528234023 85 293 0.0 4.0 0.00 0.00 0.00 33 1015.8
20170528233531 84 293 0.0 4.0 0.00 0.00 0.00 35 1015.8
20170528233022 85 293 1.0 4.0 0.00 0.00 0.00 35 1016.0
20170528232530 85 293 1.0 3.0 0.00 0.00 0.00 34 1016.0
20170528232018 84 293 0.0 4.0 0.00 0.00 0.00 35 1016.0
20170528231529 84 293 1.0 8.0 0.00 0.00 0.00 37 1016.1
20170528231018 85 293 2.0 5.0 0.00 0.00 0.00 36 1016.1
20170528230526 84 293 0.0 3.0 0.00 0.00 0.00 36 1016.2
20170528230018 84 293 1.0 4.0 0.00 0.00 0.00 36 1016.2
20170528225528 85 293 2.0 7.0 0.00 0.00 0.00 36 1016.3
20170528225018 84 293 3.0 7.0 0.00 0.00 0.00 37 1016.3
20170528224528 85 293 0.0 4.0 0.00 0.00 0.00 36 1016.4
20170528224033 84 293 0.0 4.0 0.00 0.00 0.00 38 1016.4
20170528223523 84 293 0.0 5.0 0.00 0.00 0.00 39 1016.4
20170528223032 84 293 0.0 6.0 0.00 0.00 0.00 38 1016.5
20170528222521 84 293 1.0 5.0 0.00 0.00 0.00 38 1016.5
20170528222028 84 293 1.0 5.0 0.00 0.00 0.00 38 1016.5
20170528221521 84 293 0.0 4.0 0.00 0.00 0.00 38 1016.4
20170528221028 83 293 0.0 4.0 0.00 0.00 0.00 40 1016.5
20170528220517 83 293 1.0 5.0 0.00 0.00 0.00 40 1016.5
20170528220024 83 293 2.0 5.0 0.00 0.00 0.00 40 1016.6
20170528215531 83 293 1.0 5.0 0.00 0.00 0.00 42 1016.6
20170528215019 83 293 0.0 7.0 0.00 0.00 0.00 42 1016.6
20170528214529 83 293 2.0 7.0 0.00 0.00 0.00 41 1016.7
20170528214016 83 293 1.0 3.0 0.00 0.00 0.00 42 1016.7
20170528213526 82 293 2.0 5.0 0.00 0.00 0.00 42 1016.7
20170528213019 82 293 1.0 5.0 0.00 0.00 0.00 44 1016.8
20170528212527 81 293 0.0 9.0 0.00 0.00 0.00 45 1016.8
20170528212017 81 293 4.0 9.0 0.00 0.00 0.00 44 1016.8
20170528211528 81 293 0.0 7.0 0.00 0.00 0.00 45 1016.8
20170528211016 81 293 3.0 7.0 0.00 0.00 0.00 45 1016.9
20170528210524 80 293 2.0 7.0 0.00 0.00 0.00 47 1016.9
20170528210031 80 293 1.0 8.0 0.00 0.00 0.00 47 1017.0
20170528205521 80 292 3.0 8.0 0.00 0.00 0.00 47 1016.9
20170528205030 80 292 1.0 8.0 0.00 0.00 0.00 48 1017.0
20170528204523 80 288 4.0 8.0 0.00 0.00 0.00 47 1017.0
20170528204029 80 269 1.0 5.0 0.00 0.00 0.00 47 1017.1
20170528203520 80 267 0.0 5.0 0.00 0.00 0.00 47 1017.0
20170528203028 80 267 1.0 5.0 0.00 0.00 0.00 49 1017.1
20170528202515 80 267 1.0 5.0 0.00 0.00 0.00 48 1017.1
20170528202025 79 267 0.0 5.0 0.00 0.00 0.00 50 1017.1
20170528201535 79 267 0.0 6.0 0.00 0.00 0.00 48 1017.2
20170528201024 80 267 1.0 6.0 0.00 0.00 0.00 48 1017.3
20170528200518 79 267 2.0 6.0 0.00 0.00 0.00 49 1017.3
20170528200025 79 267 1.0 7.0 0.00 0.00 0.00 50 1017.4
20170528195534 79 267 2.0 7.0 0.00 0.00 0.00 50 1017.5
20170528195023 78 267 1.0 6.0 0.00 0.00 0.00 53 1017.5
20170528194533 78 267 2.0 5.0 0.00 0.00 0.00 49 1017.5
20170528194021 78 267 1.0 6.0 0.00 0.00 0.00 51 1017.6
20170528193529 78 267 1.0 8.0 0.00 0.00 0.00 50 1017.5
20170528193019 78 267 1.0 8.0 0.00 0.00 0.00 52 1017.5
20170528192529 78 267 2.0 7.0 0.00 0.00 0.00 52 1017.5
20170528192022 78 267 0.0 3.0 0.00 0.00 0.00 51 1017.5
20170528191532 77 267 0.0 6.0 0.00 0.00 0.00 51 1017.6
20170528191021 77 267 2.0 6.0 0.00 0.00 0.00 51 1017.7